Location: Paderno d�Adda
(45.6667°N, 9.4333°E)
Time: 05:57:44
(UTC+00:00)

CENTAUR R/B - Pass Details

Date: 26 January 2021
Orbit: 742 x 1446 km, 63.5° (Epoch: 02 March)

Event Time Altitude Azimuth Distance (km) Brightness Sun altitude
Rises 06:06:07 0° 233° (SW) 3,414 5.0 -8.0°
Reaches altitude 10° 06:08:29 10° 238° (WSW) 2,559 4.3 -7.6°
Maximum altitude 06:14:21 56° 317° (NW) 1,184 2.7 -6.6°
Drops below altitude 10° 06:21:24 10° 35° (NE) 3,055 5.3 -5.5°
Sets 06:24:27 0° 39° (NE) 4,131 6.0 -5.0°
